Home > Weather > Schmallenberg > Past weeks

Flag for Germany Past Weather in Schmallenberg, North Rhine-Westphalia, Germany — Yesterday and Last 2 Weeks

Now
63 °F

Passing clouds.


Feels Like: 63 °F
Forecast: 57 / 69 °F
Wind: 5 mph from West

Location: Hessen

Current Time: Jul 29, 2016 at 9:56:02 PM

Latest Report: Jul 29, 2016 at 8:50 PM


Visibility: N/A

Pressure: 29.95 "Hg

Humidity: 100%

Dew Point: 63 °F

Location of SchmallenbergLocation

Past Weather in Schmallenberg — Graph

°F

Schmallenberg Temperature Yesterday

Maximum temperature yesterday: 70 °F (at 3:20 PM)
Minimum temperature yesterday: 59 °F (at 7:50 AM)
Average temperature yesterday: 63 °F

High & Low Weather Summary for the Past Weeks

 TemperatureHumidityPressure
High84 °F (Jul 20, 2:50 PM)100% (Jul 15, 7:50 AM)30.30 "Hg (Jul 15, 7:50 AM)
Low48 °F (Jul 15, 7:50 AM)40% (Jul 20, 3:50 PM)29.95 "Hg (Jul 29, 2:20 PM)
Average67 °F74%30.13 "Hg
* Reported Jul 14 8:20 PM — Jul 29 8:20 PM, Schmallenberg, Weather by CustomWeather, © 2016

Note: Actual official high and low records may vary slightly from our data, if they occured in-between our weather recording intervals... More about our weather records

Advertising

Schmallenberg Weather History for the Previous 24 Hours

Scroll right to see more
 ConditionsComfort  
Time TempWeatherWind HumidityBarometerVisibility
8:20 PM
Fri, Jul 29
64 °FPassing clouds.6 mph94%29.95 "HgN/A
7:50 PM64 °FPassing clouds.8 mph94%29.95 "HgN/A
7:20 PM64 °FPassing clouds.8 mph88%29.95 "HgN/A
6:50 PM64 °FPassing clouds.9 mph88%29.95 "HgN/A
6:20 PM64 °FPassing clouds.13 mph88%29.95 "HgN/A
5:50 PM64 °FScattered clouds.15 mph88%29.95 "HgN/A
5:20 PM63 °FScattered clouds.8 mph100%29.95 "HgN/A
4:50 PM61 °FSprinkles. Partly sunny.13 mph100%29.95 "HgN/A
4:20 PM61 °FRain showers. Broken clouds.12 mph100%29.95 "Hg3 mi
3:50 PM66 °FBroken clouds.12 mph83%29.95 "HgN/A
3:20 PM66 °FScattered clouds.12 mph83%29.95 "HgN/A
2:50 PM66 °FBroken clouds.10 mph83%29.95 "HgN/A
2:20 PM64 °FBroken clouds.12 mph88%29.95 "HgN/A
1:50 PM64 °FRain showers. Partly sunny.9 mph100%29.98 "HgN/A
1:20 PM61 °FRain showers. Partly sunny.9 mph100%29.98 "Hg4 mi
12:50 PM59 °FRain showers. Fog.12 mph100%29.98 "Hg2 mi
12:20 PM59 °FRain showers. Partly sunny.12 mph100%29.98 "Hg4 mi
11:50 AM59 °FRain. Fog.8 mph100%29.98 "Hg1 mi
11:20 AM61 °FLight rain. Partly sunny.10 mph100%29.98 "Hg4 mi
10:50 AM59 °FPartly sunny.9 mph100%29.98 "Hg4 mi
9:50 AM59 °FFog.9 mph100%29.98 "Hg2 mi
9:20 AM59 °FPartly sunny.12 mph94%29.98 "HgN/A
8:50 AM59 °FPassing clouds.9 mph94%29.98 "HgN/A
8:20 AM59 °FPassing clouds.8 mph100%29.98 "HgN/A
7:50 AM57 °FPassing clouds.8 mph100%29.98 "HgN/A
Weather by CustomWeather, © 2016

See weather overviewHow to use our weather pages